Weather History for KSEE - May, 2014

Change the Weather History Date:

Friday, May 16, 2014

  Actual Average Record
Temperature  
Mean Temperature 78 °F -  
Max Temperature 100 °F 73 °F 100 °F (2008)
Min Temperature 57 °F 53 °F 49 °F (1984)
Cooling Degree Days 14    
Growing Degree Days 28 (Base 50)    
Moisture  
Dew Point 28 °F    
Average Humidity 20    
Maximum Humidity 46    
Minimum Humidity 4    
Precipitation  
Precipitation 0.00 in - - ()
Sea Level Pressure  
Sea Level Pressure 29.97 in    
Wind  
Wind Speed 2 mph (WSW)    
Max Wind Speed 14 mph    
Max Gust Speed 18 mph    
Visibility 10 miles    
Events      
Averages and records for this station are not official NWS values.
T = Trace of Precipitation, MM = Missing Value Source: NWS Daily Summary

Daily Weather History Graph

Daily Weather History Graph

Search for Another Location

Airport or City:

Trip Planner

Search our weather history database for the weather conditions in past years. The results will help you decide how hot, cold, wet, or windy it might be!

Date:

Astronomy

May. 16, 2014 Rise Set
Actual Time 5:48 AM PDT 7:40 PM PDT
Civil Twilight 5:20 AM PDT 8:08 PM PDT
Nautical Twilight 4:47 AM PDT 8:41 PM PDT
Astronomical Twilight 4:12 AM PDT 9:16 PM PDT
Moon 9:52 PM PDT (5/16) 7:34 AM PDT (5/16)
Length of Visible Light 14h 47m
Length of Day
13h 52m
Waning Gibbous, 95% of the Moon is Illuminated
May 16
Waning Gibbous
May 21
Last Quarter
May 28
New
Jun 5
First Quarter
Jun 12
Full

Hourly Weather History & Observations

Time (PDT) Temp. Dew Point Humidity Pressure Visibility Wind Dir Wind Speed Gust Speed Precip Events Conditions
12:15 AM 66.2 °F 26.6 °F 23% 30.02 in 10.0 mi Calm Calm - N/A   Clear
12:35 AM 66.2 °F 26.6 °F 23% 30.01 in 10.0 mi Calm Calm - N/A   Clear
12:55 AM 64.4 °F 28.4 °F 26% 30.01 in 10.0 mi Calm Calm - N/A   Clear
1:15 AM 64.4 °F 26.6 °F 24% 30.01 in 10.0 mi Calm Calm - N/A   Clear
1:35 AM 64.4 °F 26.6 °F 24% 30.00 in 10.0 mi Calm Calm - N/A   Clear
1:55 AM 62.6 °F 28.4 °F 27% 30.00 in 10.0 mi Calm Calm - N/A   Clear
2:15 AM 62.6 °F 28.4 °F 27% 30.00 in 10.0 mi Calm Calm - N/A   Clear
2:35 AM 62.6 °F 26.6 °F 26% 30.00 in 10.0 mi Calm Calm - N/A   Clear
2:55 AM 60.8 °F 28.4 °F 29% 29.99 in 10.0 mi Calm Calm - N/A   Clear
3:15 AM 60.8 °F 28.4 °F 29% 29.99 in 10.0 mi Calm Calm - N/A   Clear
3:35 AM 60.8 °F 28.4 °F 29% 29.99 in 10.0 mi Calm Calm - N/A   Clear
3:55 AM 60.8 °F 26.6 °F 27% 29.99 in 10.0 mi Calm Calm - N/A   Clear
4:15 AM 60.8 °F 28.4 °F 29% 29.99 in 10.0 mi Calm Calm - N/A   Clear
4:35 AM 60.8 °F 28.4 °F 29% 29.98 in 10.0 mi Calm Calm - N/A   Clear
4:55 AM 57.2 °F 28.4 °F 33% 29.98 in 10.0 mi Calm Calm - N/A   Clear
5:15 AM 59.0 °F 26.6 °F 29% 29.98 in 10.0 mi Calm Calm - N/A   Clear
5:35 AM 57.2 °F 26.6 °F 31% 29.99 in 10.0 mi Calm Calm - N/A   Clear
5:55 AM 57.2 °F 26.6 °F 31% 29.99 in 10.0 mi Calm Calm - N/A   Clear
6:15 AM 57.2 °F 26.6 °F 31% 29.99 in 10.0 mi Calm Calm - N/A   Clear
6:35 AM 59.0 °F 28.4 °F 31% 30.00 in 10.0 mi Calm Calm - N/A   Clear
6:55 AM 60.8 °F 28.4 °F 29% 30.00 in 10.0 mi Calm Calm - N/A   Clear
7:15 AM 64.4 °F 30.2 °F 28% 30.00 in 9.0 mi Calm Calm - N/A   Clear
7:35 AM 66.2 °F 30.2 °F 26% 30.01 in 9.0 mi Calm Calm - N/A   Clear
7:55 AM 69.8 °F 30.2 °F 23% 30.01 in 9.0 mi Calm Calm - N/A   Clear
8:15 AM 73.4 °F 28.4 °F 19% 30.01 in 9.0 mi Calm Calm - N/A   Clear
8:35 AM 75.2 °F 28.4 °F 18% 30.01 in 9.0 mi Calm Calm - N/A   Clear
8:55 AM 78.8 °F 28.4 °F 16% 30.01 in 9.0 mi Calm Calm - N/A   Clear
9:15 AM 82.4 °F 28.4 °F 14% 30.01 in 9.0 mi Calm Calm - N/A   Clear
9:35 AM 86.0 °F 28.4 °F 12% 30.01 in 10.0 mi Calm Calm - N/A   Clear
9:55 AM 89.6 °F 23.0 °F 9% 30.00 in 10.0 mi Calm Calm - N/A   Clear
10:15 AM 91.4 °F 21.2 °F 8% 30.00 in 10.0 mi Calm Calm - N/A   Clear
10:35 AM 93.2 °F 21.2 °F 7% 29.99 in 10.0 mi Calm Calm - N/A   Clear
10:55 AM 96.8 °F 14.0 °F 5% 29.99 in 10.0 mi SW 5.8 mph - N/A   Clear
11:15 AM 96.8 °F 14.0 °F 5% 29.99 in 10.0 mi SW 8.1 mph - N/A   Clear
11:35 AM 98.6 °F 14.0 °F 5% 29.98 in 10.0 mi SSW 8.1 mph - N/A   Clear
11:47 AM 98.6 °F 14.0 °F 5% 29.98 in 25.0 mi SW 9.2 mph - N/A   Partly Cloudy
11:55 AM 98.6 °F 12.2 °F 4% 29.98 in 10.0 mi SW 5.8 mph - N/A   Clear
12:15 PM 98.6 °F 12.2 °F 4% 29.97 in 10.0 mi SSW 5.8 mph - N/A   Clear
12:35 PM 98.6 °F 17.6 °F 5% 29.97 in 10.0 mi Calm Calm - N/A   Clear
12:55 PM 100.4 °F 14.0 °F 4% 29.96 in 10.0 mi SW 9.2 mph - N/A   Clear
1:15 PM 98.6 °F 10.4 °F 4% 29.96 in 10.0 mi SW 8.1 mph - N/A   Clear
1:35 PM 100.4 °F 12.2 °F 4% 29.95 in 10.0 mi West 12.7 mph - N/A   Clear
1:55 PM 100.4 °F 14.0 °F 4% 29.95 in 10.0 mi WSW 11.5 mph 18.4 mph N/A   Clear
2:15 PM 100.4 °F 12.2 °F 4% 29.95 in 10.0 mi West 13.8 mph 17.3 mph N/A   Clear
2:35 PM 100.4 °F 14.0 °F 4% 29.95 in 10.0 mi West 13.8 mph - N/A   Clear
2:55 PM 98.6 °F 14.0 °F 5% 29.94 in 10.0 mi WSW 12.7 mph - N/A   Clear
3:15 PM 98.6 °F 19.4 °F 6% 29.94 in 10.0 mi WSW 12.7 mph - N/A   Clear
3:35 PM 98.6 °F 21.2 °F 6% 29.94 in 10.0 mi WSW 9.2 mph - N/A   Clear
3:55 PM 96.8 °F 26.6 °F 8% 29.93 in 10.0 mi WSW 10.4 mph - N/A   Clear
4:15 PM 96.8 °F 28.4 °F 9% 29.93 in 10.0 mi Calm Calm - N/A   Clear
4:35 PM 96.8 °F 28.4 °F 9% 29.92 in 10.0 mi WSW 6.9 mph - N/A   Clear
4:50 PM 95.0 °F 26.6 °F 9% 29.92 in 10.0 mi West 11.5 mph - N/A   Clear
5:15 PM 93.2 °F 26.6 °F 9% 29.92 in 10.0 mi WSW 6.9 mph - N/A   Clear
5:35 PM 93.2 °F 26.6 °F 9% 29.92 in 10.0 mi SW 6.9 mph - N/A   Clear
5:55 PM 91.4 °F 26.6 °F 10% 29.91 in 10.0 mi SW 8.1 mph - N/A   Clear
6:15 PM 89.6 °F 26.6 °F 10% 29.92 in 10.0 mi Calm Calm - N/A   Clear
6:35 PM 89.6 °F 30.2 °F 12% 29.91 in 10.0 mi Calm Calm - N/A   Clear
6:55 PM 87.8 °F 32.0 °F 14% 29.91 in 10.0 mi Calm Calm - N/A   Clear
7:15 PM 87.8 °F 39.2 °F 18% 29.92 in 10.0 mi Calm Calm - N/A   Clear
7:35 PM 84.2 °F 44.6 °F 25% 29.92 in 10.0 mi Calm Calm - N/A   Clear
7:55 PM 82.4 °F 44.6 °F 26% 29.93 in 10.0 mi Calm Calm - N/A   Clear
8:15 PM 80.6 °F 44.6 °F 28% 29.93 in 10.0 mi Calm Calm - N/A   Clear
8:35 PM 78.8 °F 42.8 °F 28% 29.93 in 10.0 mi Calm Calm - N/A   Clear
9:15 PM 75.2 °F 46.4 °F 36% 29.94 in 10.0 mi Calm Calm - N/A   Clear
9:35 PM 73.4 °F 44.6 °F 36% 29.94 in 10.0 mi Calm Calm - N/A   Clear
9:55 PM 71.6 °F 44.6 °F 38% 29.95 in 10.0 mi Calm Calm - N/A   Clear
10:15 PM 71.6 °F 46.4 °F 41% 29.95 in 10.0 mi Calm Calm - N/A   Clear
10:35 PM 71.6 °F 46.4 °F 41% 29.95 in 10.0 mi Calm Calm - N/A   Clear
10:55 PM 71.6 °F 44.6 °F 38% 29.95 in 10.0 mi Calm Calm - N/A   Clear
11:15 PM 69.8 °F 44.6 °F 40% 29.95 in 10.0 mi Calm Calm - N/A   Clear
11:35 PM 69.8 °F 44.6 °F 40% 29.95 in 10.0 mi Calm Calm - N/A   Clear
11:55 PM 66.2 °F 44.6 °F 46% 29.95 in 10.0 mi Calm Calm - N/A   Clear